Regional Weather Roundup
Issued by NWS

Home | Current Version | Previous Version | Text Only | Print | Product List | Glossary On
Versions: 1 2 3 4 5 6 7 8 9 10 11 12 13 14 15 16 17 18 19 20 21 22 23 24 25 26 27 28 29 30 31 32 33 34 35 36 37 38 39 40 41 42 43 44 45 46 47 48 49 50
000
ASUS45 KABQ 271101
RWRNM
WEATHER ROUNDUP FOR NEW MEXICO
NATIONAL WEATHER SERVICE ALBUQUERQUE NM
500 AM MDT WED AUG 27 2014

NOTE: "FAIR" MEANS FEW OR NO CLOUDS BELOW 12,000 FEET AGL WITH NO
       SIGNIFICANT WEATHER OR OBSTRUCTIONS TO VISION.

      THIS PRODUCT IS RELEASED AS TWO VERSIONS.  ONE VERSION NEAR
      THE TOP OF THE HOUR CONTAINING PRELIMINARY DATA FROM ALBUQUERQUE
      AND OTHER STATIONS.  A FINAL VERSION WITH ADDITIONAL DATA IS
      ISSUED ABOUT 10 MINUTES AFTER THE HOUR.

NMZ501-503-504-510>518-271200-
NORTHWEST PLATEAU/NORTHCENTRAL MOUNTAINS

CITY           SKY/WX    TMP DP  RH WIND       PRES   REMARKS
FARMINGTON     CLEAR     52  51  97 CALM      30.29S
LOS ALAMOS     CLOUDY    55  55 100 CALM      30.35S
SANTA FE       LGT RAIN  58  56  93 W5        30.30R
TAOS           CLOUDY    55  50  82 CALM      30.35S
ANGEL FIRE     CLOUDY    52  48  89 S3        30.39F

$$
NMZ402-403-502-505>509-271200-
WESTCENTRAL MOUNTAINS/SOUTHWEST MOUNTAINS

CITY           SKY/WX    TMP DP  RH WIND       PRES   REMARKS
GALLUP         CLEAR     48  46  93 CALM      30.33S
SILVER CITY    PTCLDY    63  57  82 N5        30.26S

$$
NMZ407-409-411-412-271200-
SOUTHERN DESERTS

CITY           SKY/WX    TMP DP  RH WIND       PRES   REMARKS
LORDSBURG      FAIR      63  61  94 CALM      30.18S
DEMING         CLEAR     62  60  93 S3        30.18S
LAS CRUCES     PTCLDY    67  60  76 N5        30.19S
HOLLOMAN AFB   CLOUDY    67  67 100 N14       30.18R
ALAMOGORDO     CLOUDY    66  63  88 N13       30.19R
T OR C         CLOUDY    63  62  97 NE7       30.23S

$$
NMZ519>523-271200-
CENTRAL VALLEYS/CENTRAL HIGHLANDS

CITY           SKY/WX    TMP DP  RH WIND       PRES   REMARKS
ALBUQUERQUE    CLOUDY    61  57  87 NW6       30.28R
DOUBLE EAGLE   MOCLDY    57  55  94 CALM      30.30S
CLINES CORNERS CLOUDY    55  54  96 SW6       30.32F
BELEN          FAIR      59  58  97 NW7       30.26F
SOCORRO        FAIR      60  59  96 S7        30.26S

$$
NMZ524>526-539-540-271200-
SOUTHCENTRAL MOUNTAINS

CITY           SKY/WX    TMP DP  RH WIND       PRES   REMARKS
RUIDOSO        NOT AVBL

$$
NMZ527>531-271200-
NORTHEAST HIGHLANDS/NORTHEAST PLAINS

CITY           SKY/WX    TMP DP  RH WIND       PRES   REMARKS
LAS VEGAS      LGT RAIN  56  55  97 S6        30.31F
RATON          LGT RAIN  59  58  96 S6        30.25F
CLAYTON        MOCLDY    63  60  90 S9        30.20F

$$
NMZ532>537-271200-
EASTCENTRAL PLAINS

CITY           SKY/WX    TMP DP  RH WIND       PRES   REMARKS
TUCUMCARI        N/A     68  63  84 CALM      30.15F
CANNON AFB     MOCLDY    66  61  82 N3        30.19R
CLOVIS AIRPORT   N/A     64  61  88 N3        30.20S

$$
NMZ028-029-538-271200-
SOUTHEAST PLAINS

CITY           SKY/WX    TMP DP  RH WIND       PRES   REMARKS
ROSWELL        MOCLDY    69  65  86 W7        30.14S
CARLSBAD       MOCLDY    70  64  81 CALM      30.09S


$$



USA.gov is the U.S. government's official web portal to all federal, state and local government web resources and services.